JJP110 RJCC-RJAA

Flight info

Callsign JJP110
Flight time 1h 25m
Altitude 36000
Route TOBBY Y10 LARCH Y302 JUGEM Y30 SWAMP
Aircraft A320/M-SDE3FGHIRWY/LB1

Departure

Time 2026-05-08 06:33
Airport New Chitose Airport (RJCC)

Arrival

Time 2026-05-08 07:58
Airport Narita International Airport (RJAA)
Time Latitude Longitude Altitude Speed Heading
2026-05-08 06:06 42.78905 141.68217 79 ft 0 kts 238°
2026-05-08 06:26 42.78910 141.68227 71 ft 4 kts 237°
2026-05-08 06:26 42.78924 141.68257 74 ft 4 kts 233°
2026-05-08 06:26 42.78941 141.68285 73 ft 4 kts 225°
2026-05-08 06:27 42.78960 141.68307 75 ft 4 kts 199°
2026-05-08 06:27 42.78977 141.68308 77 ft 0 kts 146°
2026-05-08 06:29 42.78974 141.68311 76 ft 2 kts 146°
2026-05-08 06:29 42.78955 141.68329 75 ft 5 kts 146°
2026-05-08 06:30 42.78920 141.68361 73 ft 7 kts 146°
2026-05-08 06:30 42.78870 141.68402 75 ft 9 kts 167°
2026-05-08 06:30 42.78807 141.68432 69 ft 11 kts 127°
2026-05-08 06:30 42.78807 141.68544 78 ft 13 kts 82°
2026-05-08 06:31 42.78819 141.68662 79 ft 7 kts 83°
2026-05-08 06:31 42.78821 141.68683 80 ft 0 kts 83°
2026-05-08 06:31 42.78822 141.68694 80 ft 4 kts 83°
2026-05-08 06:32 42.78826 141.68756 81 ft 9 kts 94°
2026-05-08 06:32 42.78767 141.68827 80 ft 15 kts 170°
2026-05-08 06:32 42.78480 141.68878 82 ft 75 kts 172°
2026-05-08 06:32 42.77777 141.68997 72 ft 126 kts 173°
2026-05-08 06:33 42.76813 141.69176 404 ft 138 kts 171°
2026-05-08 06:33 42.75933 141.69243 1288 ft 118 kts 184°
2026-05-08 06:33 42.75080 141.69094 1554 ft 142 kts 187°
2026-05-08 06:33 42.73961 141.68986 1713 ft 174 kts 176°
2026-05-08 06:34 42.72695 141.69264 1987 ft 197 kts 167°
2026-05-08 06:34 42.71281 141.69731 2371 ft 221 kts 165°
2026-05-08 06:34 42.69713 141.70236 2889 ft 242 kts 166°
2026-05-08 06:34 42.68033 141.70724 3694 ft 249 kts 168°
2026-05-08 06:35 42.66351 141.71160 4605 ft 252 kts 169°
2026-05-08 06:35 42.64610 141.71568 5545 ft 255 kts 172°
2026-05-08 06:35 42.62852 141.71947 6428 ft 258 kts 174°
2026-05-08 06:35 42.61056 141.72113 7246 ft 260 kts 180°
2026-05-08 06:36 42.59245 141.72220 8138 ft 261 kts 182°
2026-05-08 06:36 42.57427 141.72322 9022 ft 263 kts 182°
2026-05-08 06:36 42.55595 141.72424 9856 ft 265 kts 182°
2026-05-08 06:36 42.53744 141.72523 10356 ft 279 kts 182°
2026-05-08 06:37 42.51699 141.72626 10582 ft 302 kts 182°
2026-05-08 06:37 42.49552 141.72736 10728 ft 324 kts 182°
2026-05-08 06:37 42.47245 141.72861 11040 ft 338 kts 181°
2026-05-08 06:37 42.44871 141.72999 11653 ft 343 kts 181°
2026-05-08 06:38 42.42474 141.73144 12319 ft 347 kts 181°
2026-05-08 06:38 42.40043 141.73291 13037 ft 351 kts 181°
2026-05-08 06:38 42.37589 141.73437 13717 ft 355 kts 181°
2026-05-08 06:38 42.35113 141.73581 14285 ft 358 kts 181°
2026-05-08 06:39 42.32605 141.73723 14839 ft 361 kts 182°
2026-05-08 06:39 42.30119 141.73859 15394 ft 364 kts 182°
2026-05-08 06:39 42.27587 141.73996 15953 ft 366 kts 182°
2026-05-08 06:39 42.25036 141.74137 16514 ft 369 kts 182°
2026-05-08 06:40 42.22454 141.74282 17081 ft 372 kts 183°
2026-05-08 06:40 42.19858 141.74429 17660 ft 375 kts 183°
2026-05-08 06:40 42.17242 141.74580 18183 ft 377 kts 183°
2026-05-08 06:40 42.14626 141.74731 18719 ft 379 kts 184°
2026-05-08 06:41 42.11981 141.74880 19272 ft 380 kts 184°
2026-05-08 06:41 42.09373 141.75024 19807 ft 381 kts 185°
2026-05-08 06:41 42.06714 141.75167 20335 ft 383 kts 185°
2026-05-08 06:41 42.04054 141.75311 20843 ft 384 kts 185°
2026-05-08 06:42 42.01377 141.75458 21358 ft 385 kts 185°
2026-05-08 06:42 41.98692 141.75607 21853 ft 386 kts 185°
2026-05-08 06:42 41.96000 141.75759 22292 ft 388 kts 186°
2026-05-08 06:42 41.93299 141.75911 22736 ft 389 kts 186°
2026-05-08 06:43 41.90586 141.76070 23191 ft 391 kts 186°
2026-05-08 06:43 41.87858 141.76286 23582 ft 394 kts 185°
2026-05-08 06:43 41.85129 141.76545 23943 ft 395 kts 185°
2026-05-08 06:43 41.82378 141.76825 24328 ft 396 kts 185°
2026-05-08 06:44 41.79628 141.77106 24704 ft 397 kts 185°
2026-05-08 06:44 41.76908 141.77378 25071 ft 398 kts 185°
2026-05-08 06:44 41.74140 141.77647 25404 ft 399 kts 185°
2026-05-08 06:44 41.71369 141.77908 25776 ft 400 kts 185°
2026-05-08 06:45 41.68588 141.78162 26148 ft 401 kts 185°
2026-05-08 06:45 41.65798 141.78415 26517 ft 402 kts 185°
2026-05-08 06:45 41.63015 141.78674 27008 ft 400 kts 185°
2026-05-08 06:45 41.60256 141.78935 27545 ft 397 kts 185°
2026-05-08 06:46 41.57507 141.79193 28088 ft 394 kts 185°
2026-05-08 06:46 41.54815 141.79443 28593 ft 392 kts 185°
2026-05-08 06:46 41.52106 141.79695 29109 ft 390 kts 185°
2026-05-08 06:46 41.49432 141.79680 29599 ft 379 kts 193°
2026-05-08 06:47 41.46832 141.79214 30068 ft 375 kts 195°
2026-05-08 06:47 41.44263 141.78726 30542 ft 373 kts 195°
2026-05-08 06:47 41.41698 141.78243 31007 ft 371 kts 195°
2026-05-08 06:47 41.39159 141.77764 31447 ft 369 kts 195°
2026-05-08 06:48 41.36614 141.77284 31885 ft 368 kts 195°
2026-05-08 06:48 41.34086 141.76811 32325 ft 366 kts 195°
2026-05-08 06:48 41.31569 141.76341 32691 ft 365 kts 195°
2026-05-08 06:48 41.29053 141.75873 33087 ft 365 kts 195°
2026-05-08 06:49 41.26539 141.75405 33496 ft 365 kts 195°
2026-05-08 06:49 41.24060 141.74943 33892 ft 364 kts 195°
2026-05-08 06:49 41.21554 141.74477 34269 ft 363 kts 195°
2026-05-08 06:49 41.19065 141.74014 34623 ft 362 kts 195°
2026-05-08 06:50 41.16569 141.73550 34968 ft 361 kts 195°
2026-05-08 06:50 41.14079 141.73087 35294 ft 360 kts 195°
2026-05-08 06:50 41.11605 141.72626 35604 ft 360 kts 195°
2026-05-08 06:50 41.09122 141.72162 35676 ft 362 kts 195°
2026-05-08 06:51 41.04051 141.71207 35731 ft 372 kts 195°
2026-05-08 06:51 40.98908 141.70262 35725 ft 374 kts 194°
2026-05-08 06:52 40.93791 141.69326 35725 ft 373 kts 195°
2026-05-08 06:52 40.88645 141.68373 35725 ft 373 kts 195°
2026-05-08 06:53 40.86053 141.68106 35670 ft 389 kts 177°
2026-05-08 06:53 40.83390 141.68829 35517 ft 384 kts 185°
2026-05-08 06:53 40.80797 141.68626 35677 ft 372 kts 198°
2026-05-08 06:53 40.78268 141.67780 35715 ft 371 kts 202°
2026-05-08 06:54 40.73340 141.65835 35726 ft 373 kts 200°
2026-05-08 06:54 40.68233 141.64458 35728 ft 377 kts 195°
2026-05-08 06:55 40.63027 141.63537 35695 ft 378 kts 194°
2026-05-08 06:55 40.57804 141.62692 35703 ft 378 kts 194°
2026-05-08 06:56 40.52579 141.61788 35700 ft 378 kts 194°
2026-05-08 06:56 40.47368 141.60835 35699 ft 378 kts 195°
2026-05-08 06:57 40.42190 141.59880 35667 ft 378 kts 195°
2026-05-08 06:57 40.36971 141.58926 35700 ft 380 kts 194°
2026-05-08 06:58 40.31733 141.57976 35711 ft 380 kts 194°
2026-05-08 06:58 40.26497 141.57028 35720 ft 380 kts 195°
2026-05-08 06:59 40.21245 141.56085 35720 ft 381 kts 195°
2026-05-08 06:59 40.15994 141.55134 35719 ft 381 kts 195°
2026-05-08 07:00 40.10741 141.54186 35718 ft 381 kts 195°
2026-05-08 07:00 40.05532 141.53251 35713 ft 381 kts 195°
2026-05-08 07:01 40.00274 141.52305 35720 ft 382 kts 195°
2026-05-08 07:01 39.95010 141.51360 35700 ft 382 kts 195°
2026-05-08 07:02 39.89734 141.50417 35711 ft 383 kts 195°
2026-05-08 07:02 39.84455 141.49469 35718 ft 383 kts 195°
2026-05-08 07:03 39.79207 141.48531 35736 ft 383 kts 195°
2026-05-08 07:03 39.73923 141.47592 35692 ft 384 kts 195°
2026-05-08 07:04 39.68629 141.46646 35711 ft 385 kts 195°
2026-05-08 07:04 39.63313 141.45699 35726 ft 385 kts 195°
2026-05-08 07:05 39.58010 141.44764 35757 ft 385 kts 195°
2026-05-08 07:05 39.52738 141.43825 35732 ft 384 kts 195°
2026-05-08 07:06 39.47450 141.42886 35741 ft 385 kts 195°
2026-05-08 07:06 39.42141 141.41949 35744 ft 385 kts 195°
2026-05-08 07:07 39.36832 141.41015 35774 ft 385 kts 195°
2026-05-08 07:07 39.31493 141.40076 35731 ft 384 kts 195°
2026-05-08 07:08 39.26206 141.39151 35740 ft 384 kts 195°
2026-05-08 07:08 39.20944 141.38223 35745 ft 384 kts 196°
2026-05-08 07:09 39.15653 141.37295 35753 ft 384 kts 195°
2026-05-08 07:09 39.10356 141.36379 35734 ft 384 kts 196°
2026-05-08 07:10 39.05070 141.35457 35750 ft 383 kts 196°
2026-05-08 07:10 38.99816 141.34540 35750 ft 383 kts 196°
2026-05-08 07:11 38.94534 141.33617 35756 ft 383 kts 196°
2026-05-08 07:11 38.89246 141.32699 35733 ft 383 kts 196°
2026-05-08 07:12 38.83956 141.31782 35741 ft 384 kts 196°
2026-05-08 07:12 38.78659 141.30866 35749 ft 384 kts 196°
2026-05-08 07:13 38.73374 141.29958 35757 ft 384 kts 196°
2026-05-08 07:13 38.68942 141.29196 35733 ft 384 kts 197°
2026-05-08 07:14 38.63656 141.28282 35741 ft 384 kts 197°
2026-05-08 07:14 38.58356 141.27365 35722 ft 385 kts 190°
2026-05-08 07:15 38.52980 141.26443 35763 ft 386 kts 196°
2026-05-08 07:15 38.47703 141.25535 35758 ft 386 kts 197°
2026-05-08 07:16 38.42398 141.24618 35759 ft 385 kts 197°
2026-05-08 07:16 38.37078 141.23708 35757 ft 385 kts 197°
2026-05-08 07:17 38.31761 141.22801 35754 ft 385 kts 197°
2026-05-08 07:17 38.26442 141.21894 35720 ft 386 kts 197°
2026-05-08 07:18 38.21103 141.20984 35727 ft 387 kts 197°
2026-05-08 07:18 38.15789 141.20082 35701 ft 388 kts 197°
2026-05-08 07:19 38.10437 141.19168 35707 ft 388 kts 197°
2026-05-08 07:19 38.05087 141.18255 35720 ft 388 kts 197°
2026-05-08 07:20 37.99736 141.17351 35727 ft 388 kts 197°
2026-05-08 07:20 37.94374 141.16440 35750 ft 387 kts 198°
2026-05-08 07:21 37.89283 141.14661 35710 ft 378 kts 205°
2026-05-08 07:21 37.84295 141.12683 35724 ft 379 kts 205°
2026-05-08 07:22 37.79266 141.10693 35739 ft 379 kts 205°
2026-05-08 07:22 37.74230 141.08694 35743 ft 379 kts 205°
2026-05-08 07:23 37.69199 141.06706 35707 ft 379 kts 205°
2026-05-08 07:23 37.64189 141.04736 35712 ft 379 kts 205°
2026-05-08 07:24 37.59117 141.02744 35715 ft 380 kts 205°
2026-05-08 07:24 37.54104 141.00776 35716 ft 380 kts 205°
2026-05-08 07:25 37.49060 140.98789 35728 ft 380 kts 205°
2026-05-08 07:26 37.41515 140.95835 35711 ft 380 kts 206°
2026-05-08 07:26 37.36463 140.93858 35712 ft 380 kts 206°
2026-05-08 07:27 37.31411 140.91891 35723 ft 381 kts 205°
2026-05-08 07:27 37.26345 140.89923 35722 ft 381 kts 205°
2026-05-08 07:28 37.21299 140.87972 35435 ft 375 kts 205°
2026-05-08 07:28 37.18872 140.87027 35203 ft 367 kts 207°
2026-05-08 07:28 37.16471 140.85991 34686 ft 365 kts 208°
2026-05-08 07:28 37.14122 140.84894 34455 ft 356 kts 209°
2026-05-08 07:29 37.11833 140.83794 34173 ft 349 kts 209°
2026-05-08 07:29 37.09580 140.82700 33796 ft 345 kts 210°
2026-05-08 07:29 37.07344 140.81619 33356 ft 343 kts 209°
2026-05-08 07:29 37.05122 140.80557 32895 ft 341 kts 209°
2026-05-08 07:30 37.02918 140.79515 32441 ft 339 kts 209°
2026-05-08 07:30 37.00718 140.78486 31978 ft 337 kts 209°
2026-05-08 07:30 36.98522 140.77463 31539 ft 335 kts 209°
2026-05-08 07:30 36.96369 140.76461 31103 ft 333 kts 209°
2026-05-08 07:31 36.94175 140.75440 30660 ft 331 kts 209°
2026-05-08 07:31 36.92014 140.74435 30239 ft 330 kts 209°
2026-05-08 07:31 36.89898 140.73450 29849 ft 329 kts 209°
2026-05-08 07:31 36.87754 140.72458 29420 ft 328 kts 208°
2026-05-08 07:32 36.85593 140.71549 29020 ft 329 kts 206°
2026-05-08 07:32 36.83391 140.70766 28747 ft 330 kts 204°
2026-05-08 07:32 36.81180 140.70031 28479 ft 330 kts 204°
2026-05-08 07:32 36.78957 140.69313 28175 ft 329 kts 204°
2026-05-08 07:33 36.76746 140.68596 27911 ft 328 kts 204°
2026-05-08 07:33 36.74543 140.67874 27655 ft 327 kts 204°
2026-05-08 07:33 36.72356 140.67154 27398 ft 326 kts 204°
2026-05-08 07:33 36.70193 140.66441 27150 ft 324 kts 204°
2026-05-08 07:34 36.67988 140.65710 26898 ft 323 kts 204°
2026-05-08 07:34 36.65852 140.64999 26647 ft 322 kts 204°
2026-05-08 07:34 36.63696 140.64280 26388 ft 321 kts 204°
2026-05-08 07:34 36.61538 140.63558 26147 ft 320 kts 204°
2026-05-08 07:35 36.59387 140.62838 25703 ft 323 kts 204°
2026-05-08 07:35 36.57190 140.62102 25143 ft 325 kts 204°
2026-05-08 07:35 36.55031 140.61393 24912 ft 318 kts 204°
2026-05-08 07:35 36.52906 140.60699 24553 ft 314 kts 204°
2026-05-08 07:36 36.50801 140.60009 24163 ft 312 kts 204°
2026-05-08 07:36 36.48685 140.59308 23779 ft 310 kts 204°
2026-05-08 07:36 36.46614 140.58620 23403 ft 308 kts 204°
2026-05-08 07:36 36.44546 140.57935 22971 ft 306 kts 204°
2026-05-08 07:37 36.42496 140.57257 22539 ft 305 kts 204°
2026-05-08 07:37 36.40453 140.56581 22109 ft 303 kts 204°
2026-05-08 07:37 36.38400 140.55904 21689 ft 301 kts 203°
2026-05-08 07:37 36.36379 140.55240 21275 ft 299 kts 203°
2026-05-08 07:38 36.34318 140.54799 20858 ft 308 kts 191°
2026-05-08 07:38 36.32143 140.55177 20481 ft 326 kts 173°
2026-05-08 07:38 36.30088 140.56526 20085 ft 349 kts 152°
2026-05-08 07:38 36.28338 140.58701 19679 ft 359 kts 144°
2026-05-08 07:39 36.26641 140.60982 19305 ft 357 kts 143°
2026-05-08 07:39 36.24996 140.63195 18947 ft 355 kts 144°
2026-05-08 07:39 36.23325 140.65434 18612 ft 353 kts 144°
2026-05-08 07:39 36.21660 140.67651 18283 ft 350 kts 144°
2026-05-08 07:40 36.20007 140.69841 17912 ft 348 kts 144°
2026-05-08 07:40 36.18353 140.72029 17523 ft 346 kts 144°
2026-05-08 07:40 36.16713 140.74199 17153 ft 344 kts 144°
2026-05-08 07:40 36.15084 140.76355 16812 ft 341 kts 144°
2026-05-08 07:41 36.13500 140.78452 16462 ft 338 kts 144°
2026-05-08 07:41 36.11748 140.80265 16120 ft 320 kts 159°
2026-05-08 07:41 36.09860 140.81670 15769 ft 316 kts 160°
2026-05-08 07:41 36.07978 140.83056 15428 ft 314 kts 160°
2026-05-08 07:42 36.06104 140.84436 15098 ft 312 kts 160°
2026-05-08 07:42 36.04248 140.85805 14780 ft 310 kts 160°
2026-05-08 07:42 36.02401 140.87173 14455 ft 309 kts 159°
2026-05-08 07:42 36.00565 140.88539 14133 ft 307 kts 159°
2026-05-08 07:43 35.98704 140.89778 13807 ft 297 kts 168°
2026-05-08 07:43 35.96787 140.90662 13480 ft 294 kts 169°
2026-05-08 07:43 35.94899 140.91522 13121 ft 292 kts 169°
2026-05-08 07:43 35.92995 140.92392 12754 ft 291 kts 169°
2026-05-08 07:44 35.91100 140.93261 12396 ft 290 kts 169°
2026-05-08 07:44 35.89209 140.94101 12038 ft 286 kts 173°
2026-05-08 07:44 35.87295 140.94473 11694 ft 274 kts 187°
2026-05-08 07:44 35.85426 140.94292 11343 ft 265 kts 198°
2026-05-08 07:45 35.83662 140.93725 10995 ft 261 kts 205°
2026-05-08 07:45 35.82132 140.92643 10779 ft 250 kts 225°
2026-05-08 07:45 35.81093 140.90942 10660 ft 252 kts 245°
2026-05-08 07:45 35.80710 140.88830 10539 ft 258 kts 266°
2026-05-08 07:46 35.81085 140.86675 10420 ft 268 kts 285°
2026-05-08 07:46 35.81808 140.84517 10302 ft 269 kts 285°
2026-05-08 07:46 35.82529 140.82364 10182 ft 268 kts 285°
2026-05-08 07:46 35.83245 140.80225 10064 ft 268 kts 285°
2026-05-08 07:47 35.83972 140.78051 9935 ft 268 kts 286°
2026-05-08 07:47 35.84678 140.75932 9820 ft 267 kts 286°
2026-05-08 07:47 35.85382 140.73812 9706 ft 267 kts 285°
2026-05-08 07:47 35.86075 140.71716 9594 ft 267 kts 285°
2026-05-08 07:48 35.86789 140.69555 9463 ft 268 kts 285°
2026-05-08 07:48 35.87492 140.67433 9337 ft 267 kts 286°
2026-05-08 07:48 35.88192 140.65322 9217 ft 267 kts 286°
2026-05-08 07:48 35.88895 140.63205 9087 ft 267 kts 286°
2026-05-08 07:49 35.89591 140.61105 8967 ft 267 kts 286°
2026-05-08 07:49 35.90287 140.59003 8834 ft 267 kts 286°
2026-05-08 07:49 35.90984 140.56892 8705 ft 267 kts 286°
2026-05-08 07:49 35.91695 140.54739 8583 ft 266 kts 286°
2026-05-08 07:50 35.92392 140.52631 8447 ft 265 kts 286°
2026-05-08 07:50 35.93083 140.50534 8318 ft 264 kts 286°
2026-05-08 07:50 35.93774 140.48429 8190 ft 264 kts 286°
2026-05-08 07:50 35.94462 140.46328 8065 ft 264 kts 286°
2026-05-08 07:51 35.95148 140.44234 7945 ft 263 kts 286°
2026-05-08 07:51 35.95871 140.42153 7822 ft 265 kts 291°
2026-05-08 07:51 35.96818 140.40183 7685 ft 269 kts 299°
2026-05-08 07:51 35.97932 140.38316 7561 ft 268 kts 297°
2026-05-08 07:52 35.98769 140.36302 7443 ft 261 kts 285°
2026-05-08 07:52 35.99209 140.34201 7313 ft 244 kts 274°
2026-05-08 07:52 35.99293 140.32209 7193 ft 222 kts 263°
2026-05-08 07:52 35.99090 140.30389 7082 ft 210 kts 254°
2026-05-08 07:53 35.98651 140.28675 6775 ft 211 kts 245°
2026-05-08 07:53 35.97969 140.27077 6275 ft 211 kts 236°
2026-05-08 07:53 35.96988 140.25714 5654 ft 217 kts 213°
2026-05-08 07:53 35.95522 140.25370 5038 ft 223 kts 174°
2026-05-08 07:54 35.94128 140.26260 4425 ft 233 kts 143°
2026-05-08 07:54 35.93210 140.27946 3794 ft 237 kts 127°
2026-05-08 07:54 35.92174 140.29381 3191 ft 213 kts 157°
2026-05-08 07:54 35.90945 140.30281 2711 ft 202 kts 160°
2026-05-08 07:55 35.89742 140.31139 2273 ft 198 kts 159°
2026-05-08 07:55 35.88966 140.31699 2061 ft 192 kts 159°
2026-05-08 07:55 35.87816 140.32533 1800 ft 179 kts 159°
2026-05-08 07:55 35.86780 140.33284 1551 ft 168 kts 159°
2026-05-08 07:56 35.85829 140.33975 1356 ft 150 kts 159°
2026-05-08 07:56 35.84986 140.34586 1163 ft 138 kts 159°
2026-05-08 07:56 35.84176 140.35168 998 ft 135 kts 158°
2026-05-08 07:56 35.83367 140.35752 832 ft 132 kts 159°
2026-05-08 07:57 35.82569 140.36328 653 ft 133 kts 156°
2026-05-08 07:57 35.81773 140.36909 492 ft 133 kts 156°
2026-05-08 07:57 35.80971 140.37485 327 ft 135 kts 155°
2026-05-08 07:57 35.80154 140.38080 175 ft 136 kts 155°
2026-05-08 07:58 35.79416 140.38603 144 ft 98 kts 149°
2026-05-08 07:58 35.78975 140.38925 143 ft 49 kts 148°
2026-05-08 07:58 35.78761 140.39053 142 ft 21 kts 168°
2026-05-08 07:58 35.78649 140.39074 142 ft 14 kts 173°
2026-05-08 07:59 35.78577 140.39085 143 ft 9 kts 173°
2026-05-08 07:59 35.78510 140.39097 144 ft 11 kts 164°
2026-05-08 07:59 35.78428 140.39126 143 ft 14 kts 164°
2026-05-08 07:59 35.78327 140.39159 143 ft 13 kts 171°
2026-05-08 08:00 35.78266 140.39171 143 ft 10 kts 171°
2026-05-08 08:00 35.78194 140.39184 143 ft 7 kts 171°
2026-05-08 08:00 35.78139 140.39176 144 ft 9 kts 212°
2026-05-08 08:00 35.78095 140.39105 144 ft 12 kts 239°
2026-05-08 08:01 35.78050 140.39005 143 ft 14 kts 250°
2026-05-08 08:01 35.78070 140.38904 143 ft 11 kts 290°
2026-05-08 08:01 35.78075 140.38801 143 ft 14 kts 247°
2026-05-08 08:01 35.78033 140.38746 143 ft 6 kts 222°
2026-05-08 08:02 35.77999 140.38700 143 ft 7 kts 258°
2026-05-08 08:02 35.78032 140.38673 143 ft 7 kts 329°
2026-05-08 08:02 35.78059 140.38653 143 ft 4 kts 329°